Location: Unspecified
(0.0000°N, 0.0000°E)
Time: 13:04:22
(UTC+00:00)

Vanguard 3 - All Passes

Search period start: 26 April 2015 00:00
Search period end: 06 May 2015 00:00
Orbit: 510 x 3270 km, 33.3° (Epoch: 25 April)

Date Brightness Start Highest point End Pass type
(mag) Time Alt. Az. Time Alt. Az. Time Alt. Az.
26 Apr - 01:45:14 10° WNW 02:03:19 47° SSW 02:20:34 10° SE visible
26 Apr - 04:10:13 10° WSW 04:22:59 19° SSW 04:32:42 10° SSE visible
26 Apr - 08:58:36 10° S 09:00:37 11° SSE 09:02:37 10° SSE daylight
26 Apr - 11:09:21 10° SW 11:14:49 43° SSE 11:18:38 10° ENE daylight
26 Apr - 13:24:22 10° WNW 13:26:18 13° NW 13:28:04 10° N daylight
26 Apr - 20:07:02 10° N 20:13:37 18° NNE 20:23:21 10° ENE visible
26 Apr - 22:16:13 10° NW 22:29:27 58° NE 22:48:50 10° ESE visible
27 Apr - 00:29:38 10° WNW 00:46:44 66° SW 01:06:18 10° SE visible
27 Apr - 02:49:43 10° W 03:06:04 29° SSW 03:19:54 10° SSE visible
27 Apr - 05:20:26 10° SW 05:26:35 12° SSW 05:31:20 10° S visible
27 Apr - 09:56:01 10° SSW 10:01:42 23° SSE 10:05:44 10° ESE daylight
27 Apr - 12:09:24 10° WSW 12:14:01 41° NW 12:17:33 10° NE daylight
27 Apr - 21:04:11 10° NNW 21:14:31 37° NE 21:30:34 10° E visible
27 Apr - 23:15:32 10° NW 23:30:34 89° SW 23:51:00 10° SE visible
28 Apr - 01:31:52 10° W 01:49:05 42° SSW 02:06:14 10° SE visible
28 Apr - 03:57:26 10° WSW 04:09:34 18° SSW 04:19:06 10° SSE visible
28 Apr - 06:28:22 10° S 06:30:10 10° S 06:31:48 10° S daylight
28 Apr - 08:42:23 10° SSW 08:47:47 16° SSE 08:51:58 10° SE daylight
28 Apr - 10:55:20 10° SW 11:01:44 68° SSE 11:05:51 10° ENE daylight
28 Apr - 19:53:18 10° N 20:00:02 20° NE 20:10:13 10° E visible
28 Apr - 22:02:34 10° NW 22:15:07 65° NE 22:34:30 10° ESE visible
29 Apr - 00:16:08 10° WNW 00:32:20 58° SSW 00:51:46 10° SE visible
29 Apr - 02:36:45 10° WSW 02:52:14 26° SSW 03:05:48 10° SSE visible
29 Apr - 05:06:41 10° SSW 05:13:33 13° S 05:19:04 10° SSE visible
29 Apr - 07:27:57 10° SSW 07:33:01 14° S 07:37:17 10° SE daylight
29 Apr - 09:41:20 10° SW 09:48:43 34° SSE 09:53:24 10° E daylight
29 Apr - 11:56:11 10° W 12:00:45 28° NW 12:04:08 10° NNE daylight
29 Apr - 20:50:32 10° NNW 21:00:28 41° NE 21:16:32 10° ESE visible
29 Apr - 23:01:59 10° WNW 23:16:09 79° SW 23:36:22 10° SE visible
30 Apr - 01:18:41 10° W 01:34:58 37° SSW 01:51:47 10° SSE visible
30 Apr - 03:44:35 10° SW 03:56:12 17° SSW 04:05:37 10° SSE visible
30 Apr - 06:11:38 10° SSW 06:17:15 13° S 06:22:04 10° SSE daylight
30 Apr - 08:27:03 10° SSW 08:34:50 23° SSE 08:40:11 10° ESE daylight
30 Apr - 10:41:21 10° WSW 10:48:30 83° NW 10:52:52 10° NE daylight
30 Apr - 19:39:35 10° N 19:46:22 22° NE 19:56:52 10° E visible
30 Apr - 21:48:59 10° NW 22:00:49 74° NE 22:19:56 10° ESE visible
01 May - 00:02:49 10° WNW 00:18:04 50° SSW 00:37:04 10° SE visible
01 May - 02:23:57 10° WSW 02:38:32 24° SSW 02:51:41 10° SSE visible
01 May - 04:52:32 10° SSW 05:00:28 14° S 05:07:04 10° SSE visible
01 May - 07:12:08 10° SSW 07:20:02 18° SSE 07:26:01 10° SE daylight
01 May - 09:26:43 10° SW 09:35:36 49° SSE 09:40:47 10° ENE daylight
01 May - 11:43:04 10° W 11:47:23 21° NW 11:50:34 10° N daylight
01 May - 20:36:56 10° NNW 20:46:23 47° NE 21:02:19 10° ESE visible
01 May - 22:48:34 10° WNW 23:01:51 69° SSW 23:21:33 10° SE visible
02 May - 01:05:42 10° W 01:20:59 32° SSW 01:37:13 10° SSE visible
02 May - 03:31:38 10° SW 03:42:53 17° S 03:52:21 10° SSE visible
02 May - 05:56:01 10° SSW 06:04:14 16° S 06:10:55 10° SE daylight
02 May - 08:11:54 10° SW 08:21:45 31° SSE 08:27:55 10° E daylight
02 May - 10:27:23 10° WSW 10:35:07 60° NW 10:39:44 10° NE daylight
02 May - 19:25:54 10° NNW 19:32:37 25° NE 19:43:18 10° E visible
02 May - 21:35:31 10° NW 21:46:34 84° NE 22:05:12 10° SE visible
02 May - 23:49:40 10° W 00:03:56 44° SSW 00:22:13 10° SE visible
03 May - 02:11:16 10° WSW 02:24:55 21° SSW 02:37:36 10° SSE visible
03 May - 04:38:04 10° SSW 04:47:21 15° S 04:55:10 10° SSE visible
03 May - 06:56:38 10° SSW 07:06:56 24° SSE 07:14:08 10° ESE daylight
03 May - 09:12:07 10° SW 09:22:18 67° SSE 09:27:57 10° ENE daylight
03 May - 11:30:05 10° W 11:33:56 17° NW 11:36:48 10° N daylight
03 May - 18:18:41 10° NE 18:19:03 10° NE 18:20:12 10° NE visible
03 May - 20:23:24 10° NW 20:32:18 54° NE 20:47:54 10° ESE visible
03 May - 22:35:17 10° WNW 22:47:41 60° SSW 23:06:35 10° SE visible
04 May - 00:52:54 10° WSW 01:07:08 28° SSW 01:22:36 10° SSE visible
04 May - 03:18:25 10° SW 03:29:34 17° S 03:39:19 10° SSE visible
04 May - 05:40:35 10° SSW 05:51:05 19° S 05:59:14 10° SE daylight
04 May - 07:56:49 10° SW 08:08:30 41° SSE 08:15:22 10° E daylight
04 May - 10:13:26 10° WSW 10:21:36 45° NW 10:26:27 10° NNE daylight
04 May - 19:12:15 10° NNW 19:18:48 29° NE 19:29:32 10° E visible
04 May - 21:22:07 10° WNW 21:32:26 84° SW 21:50:19 10° SE visible
04 May - 23:36:40 10° W 23:49:58 37° SSW 00:07:14 10° SE night (unlit)
05 May - 01:58:37 10° SW 02:11:23 20° S 02:23:35 10° SSE visible
05 May - 04:23:23 10° SSW 04:34:07 17° S 04:43:13 10° SE visible
05 May - 06:41:14 10° SSW 06:53:40 30° SSE 07:01:52 10° E daylight
05 May - 08:57:31 10° SW 09:08:49 86° SE 09:14:55 10° NE daylight
05 May - 11:17:20 10° WNW 11:20:27 13° NW 11:22:45 10° NNW daylight
05 May - 18:03:22 10° NNE 18:05:34 12° NE 18:08:48 10° ENE daylight
05 May - 20:09:56 10° NW 20:18:16 63° NE 20:33:21 10° ESE visible
05 May - 22:22:08 10° WNW 22:33:40 51° SSW 22:51:28 10° SE visible
